Temperature
18 18 18 18 18 18 18 18 18 18 18 18 18 18 17 17 17 17 17 17 17 17 17 17 17 17 18 18 18 18 18 18 18 18 18 18 18 18 18 18 18 18 18
18 18 18 18 18 18 18 18 18 18 18 18 17 17 17 17 17 17 17 17 17 17 17 17 17 17 17 17 18 18 18 18 18 18 18 17 18 18 18 18 17 17 18
18 18 18 18 18 18 18 18 17 17 17 17 17 17 17 17 17 17 17 17 17 17 17 17 17 17 17 17 17 17 18 18 17 17 17 17 17 17 17 17 17 18 18
17 17 18 18 18 17 17 17 17 17 17 17 17 17 17 17 17 17 17 17 17 17 17 17 17 17 17 17 17 17 17 17 17 17 17 17 17 17 17 17 17 17 17
17 17 17 17 17 17 17 17 17 17 17 17 17 17 17 17 17 17 17 17 17 17 17 17 17 17 17 17 17 17 17 17 17 17 17 17 17 17 17 17 17 17 17
17 17 17 17 17 17 17 17 17 17 17 17 17 17 17 17 17 17 17 17 17 17 17 17 17 17 17 17 17 17 17 17 17 17 17 17 17 17 17 17 17 17 17
17 17 17 17 17 17 17 17 17 17 17 17 17 17 17 17 17 17 17 17 17 17 17 17 17 17 17 17 17 17 17 17 17 17 17 17 17 17 17 17 17 17 17
17 17 17 17 17 17 17 17 17 17 17 17 17 17 17 17 17 17 17 17 17 17 17 17 17 17 17 17 17 17 16 16 16 16 17 17 16 17 17 17 17 17 17
17 17 17 17 17 17 17 17 17 17 17 17 17 17 17 17 17 17 17 17 17 16 17 17 17 17 16 16 17 16 16 16 16 16 16 16 16 16 17 16 16 16 17
18 17 17 17 17 17 17 17 17 17 17 17 17 17 17 16 16 16 16 16 16 16 16 16 16 16 16 16 16 16 16 16 16 16 16 16 16 16 16 16 16 16 16
18 17 17 17 17 17 17 17 17 17 17 17 17 17 16 16 16 16 16 16 16 16 16 16 16 16 16 16 16 16 16 16 16 16 16 16 16 16 16 16 16 16 16
18 18 17 17 17 17 17 17 17 17 17 17 17 16 16 16 16 16 16 16 16 16 16 16 16 16 16 16 16 16 16 16 16 16 16 16 16 16 16 16 16 16 16
18 18 17 17 17 17 17 17 17 17 17 17 16 16 16 16 16 16 16 16 16 16 16 16 16 16 16 16 16 16 16 16 16 16 16 15 15 15 15 16 16 16 16
18 18 17 17 17 17 17 17 17 17 17 17 16 16 16 16 16 16 16 16 16 16 16 16 16 16 16 16 16 16 16 16 15 15 15 15 15 15 15 15 15 15 15
18 18 18 18 17 17 17 17 17 16 17 16 16 16 16 16 16 16 16 16 16 16 16 16 16 15 16 15 15 15 15 15 15 15 15 15 15 15 15 15 15 15 15
18 18 18 18 17 17 17 17 17 16 16 16 16 16 16 16 16 16 16 16 16 15 15 15 15 15 15 15 15 15 15 15 15 15 15 15 15 15 15 15 15 15 15
18 18 18 18 18 17 17 17 17 17 16 16 16 16 16 16 16 16 16 15 15 15 15 15 15 15 15 15 15 15 15 15 15 15 15 15 15 15 14 14 14 14 14
18 18 18 18 17 17 17 17 17 17 16 16 16 16 16 16 16 16 16 15 15 15 15 15 15 15 15 15 15 15 15 15 15 15 15 14 14 14 14 14 14 14 14
18 18 18 17 17 17 17 17 17 16 16 16 16 16 16 16 16 16 15 15 15 15 15 15 15 15 15 15 15 15 15 14 14 14 14 14 14 14 14 14 14 14 14
18 18 18 17 17 17 17 17 16 16 16 16 16 16 16 16 16 15 15 15 15 15 15 14 14 14 14 15 15 15 15 15 14 14 14 14 14 14 14 14 14 14 14
18 18 18 17 17 17 17 16 16 16 16 16 16 16 16 15 15 15 15 15 15 15 14 14 14 14 14 14 15 15 15 14 14 14 14 14 14 14 13 13 13 13 13
18 18 18 17 17 17 17 16 16 16 16 16 16 16 16 15 15 15 15 15 15 14 14 14 14 14 14 14 14 14 14 14 14 14 14 14 14 14 13 13 13 13 13
18 18 18 17 17 17 17 16 16 16 16 16 16 15 15 15 15 15 15 15 14 14 14 14 14 14 14 14 14 14 14 14 14 14 14 14 14 13 13 13 13 13 13
18 18 18 17 17 17 17 16 16 16 16 16 15 15 15 15 15 15 15 15 14 14 14 14 14 14 14 14 14 14 14 14 14 13 13 13 13 13 13 13 13 13 12
18 18 17 17 17 17 16 16 16 16 16 16 15 15 15 15 15 15 15 14 14 14 14 14 14 14 14 14 14 14 14 14 14 14 13 13 13 13 13 13 13 13 12
18 17 17 17 17 17 16 16 16 16 16 15 15 15 15 15 15 15 15 14 14 14 14 14 14 14 14 13 13 14 14 14 14 14 14 13 13 13 13 13 13 12 12
Wind_Speed
6 8 8 8 9 9 9 9 9 9 9 9 9 10 10 10 10 10 10 11 11 10 10 10 10 10 10 10 10 10 9 9 8 8 8 8 9 9 9 8 7 7 8
7 9 9 8 9 9 9 9 9 9 9 9 9 10 10 10 10 10 10 11 11 10 10 10 11 11 10 10 10 9 9 8 7 6 6 7 9 10 10 10 10 8 9
8 10 9 9 9 9 9 9 9 9 9 9 9 10 10 10 10 10 10 11 11 11 10 11 11 11 11 10 9 9 8 7 6 5 4 5 8 10 10 10 10 9 8
9 10 10 9 9 9 9 9 9 9 10 10 10 10 10 10 10 11 10 11 11 11 11 11 11 11 11 11 10 9 8 7 6 6 5 7 8 10 10 10 10 9 8
9 12 11 10 9 9 9 9 9 10 10 10 10 10 10 10 10 10 10 11 11 11 11 11 11 11 11 10 9 8 8 7 8 6 7 8 9 10 10 9 8 8 8
9 12 11 10 10 10 10 10 10 10 10 10 10 9 10 10 10 10 10 10 11 11 11 11 11 11 10 10 10 9 9 8 8 6 8 8 9 9 9 8 8 7 7
8 11 11 11 11 11 11 11 10 10 10 10 10 10 10 10 10 10 10 10 10 10 10 10 10 10 10 10 9 9 8 8 6 5 7 8 8 9 8 8 7 7 7
8 10 11 11 12 11 11 11 10 10 9 9 9 9 9 9 10 10 10 10 10 10 11 11 10 10 10 9 9 9 9 9 8 8 9 9 9 9 8 7 8 8 8
7 8 9 10 11 11 11 10 10 9 9 8 8 8 8 8 9 9 9 9 10 10 10 10 10 10 9 9 8 8 9 10 8 8 10 9 9 10 9 8 9 9 8
5 6 7 9 10 10 10 10 9 8 8 7 7 6 6 7 7 8 8 9 9 9 9 9 8 8 8 7 7 7 7 8 9 10 9 9 10 10 10 10 9 9 9
5 5 5 5 7 8 9 9 8 7 7 6 5 4 3 4 6 7 8 8 9 9 8 7 6 6 5 4 5 6 6 7 10 10 10 11 12 11 11 11 11 11 11
5 5 5 5 5 5 6 7 5 6 6 4 4 4 3 4 7 8 9 7 7 6 6 4 3 2 1 2 3 5 6 10 10 10 11 13 13 13 13 12 12 12 12
5 5 5 5 5 5 4 5 4 4 4 4 6 5 4 5 5 5 6 5 4 4 2 2 1 2 4 5 5 6 8 9 10 11 12 14 14 14 14 13 13 13 13
5 4 4 4 5 5 5 4 3 2 3 4 5 6 5 3 3 4 3 3 3 4 3 3 3 6 6 7 7 7 8 9 10 11 12 14 14 14 13 13 13 13 14
5 4 4 3 5 5 5 2 3 3 4 5 4 4 5 3 2 3 3 3 5 5 4 3 4 5 5 6 7 7 7 8 10 11 10 14 14 13 13 13 13 13 14
4 4 4 3 5 5 4 2 3 4 3 4 3 4 5 4 3 3 3 3 4 4 4 3 4 4 4 4 4 6 6 7 9 10 10 11 13 13 13 13 12 12 13
4 4 4 3 4 4 5 4 4 3 4 3 3 4 5 5 4 4 3 3 3 5 5 5 4 4 3 4 4 4 5 5 6 8 9 9 9 11 12 12 12 12 12
4 4 5 4 4 5 5 3 3 3 3 3 3 3 3 5 6 5 3 2 4 5 4 2 2 3 3 3 4 3 3 3 4 5 7 8 8 9 10 11 11 11 11
5 5 5 4 4 5 4 3 3 3 2 3 3 3 4 5 7 5 3 3 5 3 2 3 3 3 3 2 2 2 2 2 2 4 4 6 8 10 9 10 11 11 10
3 5 5 5 4 4 3 2 2 2 2 3 3 3 4 4 6 5 2 3 3 2 2 2 2 2 2 1 2 2 1 2 2 3 3 5 6 8 8 9 8 9 10
4 4 5 5 4 3 2 2 2 1 1 2 2 3 2 2 4 4 2 3 2 2 1 2 2 2 1 1 1 1 1 2 2 2 2 3 4 5 6 8 8 8 8
5 4 5 4 4 3 3 2 2 2 1 2 1 2 2 2 3 3 2 2 2 1 1 1 1 1 1 0 0 0 0 2 2 1 2 2 2 3 4 6 7 8 9
4 4 4 4 4 4 4 2 2 2 1 1 2 1 1 2 2 2 2 2 2 1 1 1 1 1 0 1 1 0 1 1 0 1 1 2 2 2 2 3 6 8 9
4 4 4 4 4 4 4 3 3 2 2 2 2 2 2 2 2 1 2 2 2 2 2 2 2 1 1 1 2 1 0 1 2 0 1 1 1 2 2 2 4 7 9
5 3 3 4 3 3 3 3 2 1 1 1 2 3 2 2 2 2 2 2 2 2 2 2 1 1 1 1 1 1 1 1 0 2 1 1 0 1 2 2 3 5 8
6 4 3 3 3 3 3 3 2 1 1 2 1 1 1 1 1 1 1 1 1 1 2 2 2 2 1 1 1 1 1 0 1 1 1 2 2 2 2 2 3 4 7
Wind_Direction
86 87 78 71 69 73 71 71 69 69 69 69 72 73 71 72 74 73 70 65 65 64 63 62 61 61 63 61 60 60 62 64 67 69 72 73 72 69 65 67 72 79 83
100 96 86 76 72 75 74 75 72 71 71 71 74 76 74 72 73 75 76 72 69 67 65 64 63 61 60 59 60 60 62 62 64 67 74 77 74 70 64 62 65 71 73
100 101 91 79 73 75 78 80 78 74 71 72 75 77 76 75 73 73 75 73 70 67 66 66 64 62 61 59 59 59 57 54 52 55 64 85 86 76 67 62 62 66 67
98 96 89 85 78 78 83 85 82 77 74 75 74 75 77 78 74 72 74 72 70 67 66 66 65 61 60 59 59 57 51 40 33 38 54 72 80 81 71 63 60 61 63
91 92 92 89 83 81 86 88 84 81 79 80 76 75 77 77 76 73 71 70 69 67 67 68 66 63 61 58 55 51 44 37 30 35 57 71 77 82 75 69 63 63 64
96 99 100 96 91 89 88 88 85 84 83 83 79 76 75 75 76 74 71 71 70 68 70 69 68 65 64 60 53 47 40 36 33 42 61 73 82 82 79 75 71 70 68
101 104 107 104 100 95 92 87 84 83 80 79 78 76 76 76 77 75 73 73 72 71 71 69 70 67 63 58 51 43 38 36 52 60 76 79 85 85 81 77 74 72 71
109 109 110 110 105 99 94 88 86 86 84 82 81 79 79 80 82 79 75 76 74 73 72 69 70 69 65 59 50 42 33 33 51 59 70 72 77 80 80 80 80 78 79
105 115 121 124 118 109 101 95 93 92 91 90 90 90 89 88 87 83 78 77 77 76 75 72 71 71 68 60 49 40 35 33 43 51 63 65 72 78 79 78 78 78 75
100 109 123 133 132 129 121 112 110 106 105 103 101 102 104 103 100 93 85 82 81 80 80 79 77 73 67 56 42 32 32 36 53 61 61 64 71 76 79 79 77 75 74
96 103 106 109 112 124 129 126 133 130 131 129 130 133 130 124 118 104 94 93 93 92 91 90 86 79 74 58 39 26 35 59 66 66 60 67 72 75 78 78 78 76 75
111 114 109 107 104 105 104 120 135 126 135 141 114 112 106 92 94 105 109 107 110 110 104 95 87 73 73 84 66 49 46 63 65 69 63 69 72 73 74 75 77 77 75
111 107 116 115 112 104 90 101 91 95 107 96 90 89 83 87 98 105 117 130 140 138 120 91 81 72 67 67 64 64 62 65 68 70 66 71 72 71 73 74 76 77 77
114 110 109 115 116 113 104 98 106 91 75 73 69 78 72 64 65 64 74 76 95 90 76 66 63 58 56 61 63 65 69 73 78 77 70 71 72 74 74 76 78 77 77
119 121 117 119 114 105 99 102 99 79 63 68 49 64 80 73 67 67 74 57 60 64 67 51 57 56 51 52 61 66 71 80 86 85 77 73 73 74 76 77 79 80 79
130 127 115 113 105 106 116 118 92 85 92 81 52 41 69 78 75 69 58 56 53 47 48 57 58 54 55 55 55 66 68 74 91 98 97 85 79 77 77 77 77 79 80
129 125 125 118 108 104 98 87 88 90 91 85 62 36 58 77 82 79 64 56 56 49 44 54 55 55 54 52 55 61 70 61 80 101 107 104 94 84 80 78 78 79 80
132 130 119 122 107 95 94 96 89 85 78 81 77 42 38 64 79 81 75 63 66 65 52 39 58 55 54 44 47 44 61 57 54 82 104 108 108 98 90 86 82 80 82
142 138 131 124 110 103 98 102 94 93 82 79 78 54 33 53 70 78 71 70 65 66 48 32 48 60 64 59 69 55 46 54 49 63 78 97 105 109 105 96 88 83 84
143 138 135 124 122 118 115 106 90 82 84 78 79 76 50 49 73 82 81 82 72 69 57 47 49 59 75 56 70 63 43 79 64 49 48 68 90 105 115 113 102 90 85
155 145 134 136 149 139 122 118 124 118 106 87 92 90 75 70 91 93 80 77 76 78 67 65 61 50 65 89 71 50 21 62 78 85 68 63 65 83 102 115 116 109 98
155 148 142 151 153 144 137 144 142 123 130 122 92 102 112 90 92 111 119 109 106 107 79 62 70 38 334 358 112 158 58 12 2 90 99 99 86 80 77 91 104 107 103
162 160 162 164 153 150 149 147 127 113 116 144 157 133 118 119 107 105 120 128 142 162 174 168 163 127 281 312 356 84 123 173 283 341 113 108 98 85 75 85 91 103 106
167 162 160 157 151 152 149 146 150 159 183 186 156 152 160 142 125 138 146 160 178 176 179 205 169 174 177 269 317 339 20 142 141 278 332 32 106 109 110 82 84 92 104
157 154 159 151 140 137 140 148 164 170 173 142 133 154 170 162 157 178 184 204 195 187 187 188 177 199 193 193 234 294 320 339 124 154 219 230 349 140 138 120 110 108 111
153 153 157 151 141 138 137 133 153 164 133 129 141 160 172 157 182 198 186 206 202 196 205 197 193 200 207 197 239 236 214 194 242 198 203 201 194 207 163 139 131 130 128
Height
1519 1518 1518 1518 1517 1517 1517 1518 1518 1518 1518 1518 1519 1519 1519 1519 1519 1520 1520 1520 1520 1521 1521 1521 1521 1522 1522 1522 1522 1522 1522 1522 1523 1523 1523 1523 1523 1523 1523 1524 1524 1525 1526
1519 1518 1519 1518 1518 1518 1518 1519 1519 1519 1519 1519 1520 1520 1520 1520 1521 1521 1521 1521 1522 1522 1522 1522 1523 1523 1523 1523 1523 1523 1523 1523 1523 1524 1524 1524 1524 1524 1525 1525 1526 1526 1527
1519 1519 1519 1519 1519 1519 1519 1519 1520 1520 1520 1520 1521 1521 1522 1522 1522 1522 1523 1523 1523 1523 1523 1523 1523 1524 1524 1524 1524 1524 1524 1524 1525 1525 1525 1525 1525 1525 1526 1526 1527 1527 1527
1520 1520 1520 1520 1520 1520 1520 1520 1520 1521 1521 1521 1522 1522 1523 1523 1523 1524 1524 1524 1524 1524 1524 1524 1525 1525 1525 1525 1525 1525 1525 1526 1526 1526 1526 1526 1526 1527 1527 1527 1527 1527 1528
1521 1521 1521 1521 1521 1521 1521 1521 1521 1522 1522 1522 1523 1524 1524 1524 1525 1525 1525 1525 1526 1526 1526 1526 1526 1526 1526 1526 1526 1526 1526 1526 1527 1527 1527 1527 1527 1527 1527 1528 1528 1528 1528
1522 1521 1521 1522 1522 1522 1522 1522 1522 1523 1523 1524 1524 1525 1525 1526 1526 1526 1527 1527 1527 1527 1527 1527 1527 1527 1527 1527 1527 1527 1527 1527 1527 1528 1528 1528 1528 1528 1528 1528 1528 1528 1529
1523 1523 1522 1523 1523 1523 1523 1523 1524 1524 1525 1525 1526 1526 1527 1527 1527 1528 1528 1528 1528 1528 1528 1528 1528 1528 1528 1528 1528 1528 1528 1528 1528 1528 1528 1528 1529 1529 1529 1528 1529 1529 1529
1524 1524 1524 1524 1524 1524 1524 1525 1525 1526 1526 1527 1527 1528 1528 1529 1529 1529 1529 1529 1529 1529 1529 1529 1529 1529 1529 1529 1529 1529 1529 1529 1529 1529 1529 1529 1529 1529 1529 1529 1529 1529 1530
1526 1525 1525 1525 1525 1526 1526 1526 1527 1527 1528 1528 1529 1529 1530 1530 1530 1530 1531 1531 1531 1531 1531 1531 1530 1530 1530 1530 1531 1531 1531 1531 1531 1530 1530 1529 1530 1530 1530 1530 1530 1530 1530
1527 1527 1527 1527 1527 1528 1528 1528 1529 1529 1529 1530 1531 1531 1531 1532 1532 1532 1532 1532 1532 1532 1532 1532 1532 1532 1532 1532 1532 1532 1532 1532 1531 1531 1530 1530 1530 1530 1530 1530 1531 1531 1531
1528 1529 1529 1529 1530 1530 1530 1530 1531 1531 1531 1532 1532 1533 1533 1533 1533 1533 1534 1534 1534 1534 1534 1534 1534 1534 1533 1533 1534 1534 1533 1533 1533 1532 1531 1531 1531 1531 1531 1531 1531 1531 1531
1529 1530 1530 1531 1531 1531 1532 1532 1532 1533 1533 1533 1533 1534 1534 1534 1535 1535 1535 1535 1535 1535 1535 1535 1535 1535 1535 1535 1535 1535 1535 1534 1534 1533 1533 1533 1533 1532 1532 1532 1532 1532 1532
1530 1531 1531 1532 1532 1533 1533 1533 1534 1534 1534 1535 1535 1535 1535 1536 1536 1536 1536 1536 1536 1536 1536 1536 1536 1536 1536 1536 1536 1536 1536 1536 1535 1535 1535 1534 1534 1534 1533 1533 1533 1533 1532
1530 1531 1532 1533 1533 1534 1534 1535 1535 1535 1536 1536 1536 1536 1536 1536 1537 1537 1537 1537 1537 1537 1537 1537 1538 1537 1538 1538 1538 1538 1537 1537 1537 1536 1536 1536 1535 1535 1535 1534 1534 1533 1534
1531 1532 1533 1533 1534 1534 1535 1535 1536 1536 1536 1536 1536 1537 1537 1537 1537 1537 1538 1538 1538 1538 1538 1538 1538 1538 1539 1539 1539 1539 1539 1539 1538 1538 1538 1537 1537 1536 1536 1536 1535 1535 1535
1531 1532 1533 1534 1534 1535 1535 1536 1536 1537 1537 1537 1537 1537 1538 1538 1538 1538 1538 1538 1538 1539 1539 1539 1539 1539 1540 1540 1540 1540 1540 1540 1540 1539 1539 1539 1539 1538 1538 1537 1537 1537 1537
1530 1532 1532 1534 1535 1535 1536 1536 1537 1537 1538 1538 1538 1538 1538 1538 1538 1538 1539 1539 1539 1539 1540 1540 1540 1540 1540 1540 1541 1541 1541 1541 1542 1541 1541 1540 1540 1540 1539 1539 1539 1538 1538
1530 1531 1532 1533 1534 1535 1536 1536 1537 1538 1538 1538 1538 1538 1539 1539 1539 1539 1539 1539 1540 1540 1540 1540 1540 1540 1541 1541 1541 1542 1542 1543 1543 1543 1542 1542 1541 1541 1541 1541 1540 1540 1540
1529 1531 1532 1533 1534 1535 1535 1536 1537 1537 1538 1538 1538 1538 1539 1539 1539 1539 1539 1539 1540 1540 1540 1540 1541 1541 1541 1542 1542 1543 1543 1543 1543 1544 1544 1544 1543 1543 1542 1542 1542 1541 1541
1529 1530 1531 1532 1533 1534 1535 1536 1537 1537 1538 1538 1538 1538 1539 1539 1539 1539 1539 1540 1540 1540 1540 1540 1541 1541 1542 1542 1543 1543 1544 1544 1544 1545 1545 1545 1545 1544 1544 1543 1543 1543 1542
1527 1529 1530 1531 1532 1533 1534 1535 1536 1537 1537 1537 1538 1538 1538 1539 1539 1539 1539 1540 1540 1540 1540 1540 1541 1541 1542 1543 1543 1544 1545 1545 1545 1545 1546 1546 1546 1546 1545 1544 1544 1543 1543
1526 1527 1529 1530 1531 1532 1533 1534 1536 1536 1537 1537 1537 1537 1538 1538 1538 1539 1539 1539 1539 1539 1540 1540 1541 1541 1542 1543 1543 1544 1544 1546 1545 1546 1546 1546 1546 1546 1546 1545 1545 1544 1544
1524 1526 1527 1529 1530 1531 1532 1534 1535 1536 1536 1536 1536 1537 1537 1538 1538 1538 1539 1539 1539 1539 1539 1540 1540 1541 1541 1542 1543 1544 1544 1544 1545 1546 1546 1546 1545 1546 1546 1546 1545 1544 1544
1522 1524 1526 1527 1529 1530 1531 1532 1533 1534 1535 1535 1536 1536 1536 1537 1537 1538 1538 1538 1538 1539 1539 1539 1540 1540 1541 1541 1542 1543 1543 1544 1544 1544 1545 1545 1545 1545 1545 1545 1545 1544 1544
1520 1522 1524 1526 1527 1528 1529 1531 1532 1533 1534 1534 1535 1535 1535 1535 1536 1536 1536 1537 1537 1537 1538 1538 1538 1539 1539 1540 1540 1541 1542 1542 1543 1543 1544 1544 1544 1544 1544 1544 1544 1544 1543
1518 1520 1522 1524 1525 1526 1528 1529 1530 1531 1532 1532 1533 1533 1534 1534 1534 1534 1534 1535 1535 1536 1536 1536 1537 1537 1538 1538 1539 1540 1540 1541 1541 1542 1542 1542 1543 1543 1543 1543 1543 1543 1543